Time,TemperatureF,DewpointF,PressureIn,WindDirection,WindDirectionDegrees,WindSpeedMPH,WindSpeedGustMPH,Humidity,HourlyPrecipIn,Conditions,Clouds,dailyrainin,SolarRadiationWatts/m^2,SoftwareType,DateUTC
2013-05-12 00:11:00,40.0,40.0,-100.00,NW,310,1.0,3.0,100,0.00,,,0.06,0.000000,,2013-05-12 08:11:00,
2013-05-12 00:21:00,40.0,40.0,-100.00,NW,310,1.0,3.0,100,0.00,,,0.06,0.000000,,2013-05-12 08:21:00,
2013-05-12 00:32:00,40.0,40.0,-100.00,NW,310,1.0,3.0,100,0.00,,,0.06,0.000000,,2013-05-12 08:32:00,
2013-05-12 00:41:00,40.0,40.0,-100.00,NW,310,1.0,3.0,100,0.00,,,0.06,0.000000,,2013-05-12 08:41:00,
2013-05-12 00:52:00,40.0,40.0,-100.00,NW,310,1.0,3.0,100,0.00,,,0.06,0.000000,,2013-05-12 08:52:00,
2013-05-12 01:11:00,41.0,41.0,-100.00,NW,322,2.0,3.0,100,0.00,,,0.06,0.000000,,2013-05-12 09:11:00,
2013-05-12 01:21:00,41.0,41.0,-100.00,NW,322,2.0,3.0,100,0.00,,,0.06,0.000000,,2013-05-12 09:21:00,
2013-05-12 01:32:00,41.0,41.0,-100.00,NW,322,2.0,3.0,100,0.00,,,0.06,0.000000,,2013-05-12 09:32:00,
2013-05-12 01:42:00,41.0,41.0,-100.00,NW,322,2.0,3.0,100,0.00,,,0.06,0.000000,,2013-05-12 09:42:00,
2013-05-12 01:52:00,41.0,41.0,-100.00,NW,322,2.0,3.0,100,0.00,,,0.06,0.000000,,2013-05-12 09:52:00,
2013-05-12 02:12:00,40.0,40.0,-100.00,NW,319,1.0,2.0,100,0.00,,,-99.99,0.000000,,2013-05-12 10:12:00,
2013-05-12 02:22:00,40.0,40.0,-100.00,NW,319,1.0,2.0,100,0.00,,,-99.99,0.000000,,2013-05-12 10:22:00,
2013-05-12 02:33:00,40.0,40.0,-100.00,NW,319,1.0,2.0,100,0.00,,,-99.99,0.000000,,2013-05-12 10:33:00,
2013-05-12 02:42:00,40.0,40.0,-100.00,NW,319,1.0,2.0,100,0.00,,,-99.99,0.000000,,2013-05-12 10:42:00,
2013-05-12 02:52:00,40.0,40.0,-100.00,NW,319,1.0,2.0,100,0.00,,,-99.99,0.000000,,2013-05-12 10:52:00,
2013-05-12 03:12:00,40.0,40.0,-100.00,WNW,295,0.0,1.0,100,0.00,,,-99.99,0.000000,,2013-05-12 11:12:00,
2013-05-12 03:21:00,40.0,40.0,-100.00,WNW,295,0.0,1.0,100,0.00,,,-99.99,0.000000,,2013-05-12 11:21:00,
2013-05-12 03:32:00,40.0,40.0,-100.00,WNW,295,0.0,1.0,100,0.00,,,-99.99,0.000000,,2013-05-12 11:32:00,
2013-05-12 03:42:00,40.0,40.0,-100.00,WNW,295,0.0,1.0,100,0.00,,,-99.99,0.000000,,2013-05-12 11:42:00,
2013-05-12 03:51:00,40.0,40.0,-100.00,WNW,295,0.0,1.0,100,0.00,,,-99.99,0.000000,,2013-05-12 11:51:00,
2013-05-12 04:11:00,39.0,39.0,-100.00,SSW,209,0.0,2.0,100,0.00,,,0.06,0.000000,,2013-05-12 12:11:00,
2013-05-12 04:21:00,39.0,39.0,-100.00,SSW,209,0.0,2.0,100,0.00,,,0.06,0.000000,,2013-05-12 12:21:00,
2013-05-12 04:32:00,39.0,39.0,-100.00,SSW,209,0.0,2.0,100,0.00,,,0.06,0.000000,,2013-05-12 12:32:00,
2013-05-12 04:41:00,39.0,39.0,-100.00,SSW,209,0.0,2.0,100,0.00,,,0.06,0.000000,,2013-05-12 12:41:00,
2013-05-12 04:51:00,39.0,39.0,-100.00,SSW,209,0.0,2.0,100,0.00,,,0.06,0.000000,,2013-05-12 12:51:00,
2013-05-12 05:11:00,39.0,39.0,-100.00,WNW,286,0.0,3.0,100,0.00,,,0.06,0.000000,,2013-05-12 13:11:00,
2013-05-12 05:21:00,39.0,39.0,-100.00,WNW,286,0.0,3.0,100,0.00,,,0.06,0.000000,,2013-05-12 13:21:00,
2013-05-12 05:31:00,39.0,39.0,-100.00,WNW,286,0.0,3.0,100,0.00,,,0.06,0.000000,,2013-05-12 13:31:00,
2013-05-12 05:41:00,39.0,39.0,-100.00,WNW,286,0.0,3.0,100,0.00,,,0.06,0.000000,,2013-05-12 13:41:00,
2013-05-12 05:52:00,39.0,39.0,-100.00,WNW,286,0.0,3.0,100,0.00,,,0.06,0.000000,,2013-05-12 13:52:00,
2013-05-12 06:21:00,39.0,39.0,-100.00,SSW,204,0.0,3.0,100,0.01,,,0.07,0.000000,,2013-05-12 14:21:00,
2013-05-12 06:31:00,39.0,39.0,-100.00,SSW,204,0.0,3.0,100,0.01,,,0.07,0.000000,,2013-05-12 14:31:00,
2013-05-12 06:42:00,39.0,39.0,-100.00,SSW,204,0.0,3.0,100,0.01,,,0.07,0.000000,,2013-05-12 14:42:00,
2013-05-12 06:51:00,39.0,39.0,-100.00,SSW,204,0.0,3.0,100,0.01,,,0.07,0.000000,,2013-05-12 14:51:00,
2013-05-12 07:21:00,40.0,40.0,-100.00,ESE,122,0.0,2.0,100,0.00,,,0.07,17.000000,,2013-05-12 15:21:00,
2013-05-12 07:33:00,40.0,40.0,-100.00,ESE,122,0.0,2.0,100,0.00,,,0.07,17.000000,,2013-05-12 15:33:00,
2013-05-12 07:42:00,40.0,40.0,-100.00,ESE,122,0.0,2.0,100,0.00,,,0.07,17.000000,,2013-05-12 15:42:00,
2013-05-12 07:52:00,40.0,40.0,-100.00,ESE,122,0.0,2.0,100,0.00,,,0.07,17.000000,,2013-05-12 15:52:00,
2013-05-12 08:12:00,41.0,41.0,-100.00,North,1,0.0,1.0,100,0.00,,,0.07,49.000000,,2013-05-12 16:12:00,
2013-05-12 08:23:00,41.0,41.0,-100.00,North,1,0.0,1.0,100,0.00,,,0.07,49.000000,,2013-05-12 16:23:00,
2013-05-12 08:32:00,41.0,41.0,-100.00,North,1,0.0,1.0,100,0.00,,,0.07,49.000000,,2013-05-12 16:32:00,
2013-05-12 08:42:00,41.0,41.0,-100.00,North,1,0.0,1.0,100,0.00,,,0.07,49.000000,,2013-05-12 16:42:00,
2013-05-12 08:52:00,41.0,41.0,-100.00,North,1,0.0,1.0,100,0.00,,,0.07,49.000000,,2013-05-12 16:52:00,
2013-05-12 09:11:00,42.0,42.0,-100.00,SSE,155,0.0,2.0,100,0.00,,,0.07,92.000000,,2013-05-12 17:11:00,
2013-05-12 09:22:00,42.0,42.0,-100.00,SSE,155,0.0,2.0,100,0.00,,,0.07,92.000000,,2013-05-12 17:22:00,
2013-05-12 09:32:00,42.0,42.0,-100.00,SSE,155,0.0,2.0,100,0.00,,,0.07,92.000000,,2013-05-12 17:32:00,
2013-05-12 09:42:00,42.0,42.0,-100.00,SSE,155,0.0,2.0,100,0.00,,,0.07,92.000000,,2013-05-12 17:42:00,
2013-05-12 09:52:00,42.0,42.0,-100.00,SSE,155,0.0,2.0,100,0.00,,,0.07,92.000000,,2013-05-12 17:52:00,
2013-05-12 10:12:00,43.0,43.0,-100.00,East,95,0.0,0.0,100,0.00,,,0.07,117.000000,,2013-05-12 18:12:00,
2013-05-12 10:22:00,43.0,43.0,-100.00,East,95,0.0,0.0,100,0.00,,,0.07,117.000000,,2013-05-12 18:22:00,
2013-05-12 10:31:00,43.0,43.0,-100.00,East,95,0.0,0.0,100,0.00,,,0.07,117.000000,,2013-05-12 18:31:00,
2013-05-12 10:41:00,43.0,43.0,-100.00,East,95,0.0,0.0,100,0.00,,,0.07,117.000000,,2013-05-12 18:41:00,
2013-05-12 10:51:00,43.0,43.0,-100.00,East,95,0.0,0.0,100,0.00,,,0.07,117.000000,,2013-05-12 18:51:00,
2013-05-12 11:11:00,46.0,46.0,-100.00,ENE,63,0.0,3.0,100,0.00,,,0.07,181.000000,,2013-05-12 19:11:00,
2013-05-12 11:21:00,46.0,46.0,-100.00,ENE,63,0.0,3.0,100,0.00,,,0.07,181.000000,,2013-05-12 19:21:00,
2013-05-12 11:32:00,46.0,46.0,-100.00,ENE,63,0.0,3.0,100,0.00,,,0.07,181.000000,,2013-05-12 19:32:00,
2013-05-12 11:41:00,46.0,46.0,-100.00,ENE,63,0.0,3.0,100,0.00,,,0.07,181.000000,,2013-05-12 19:41:00,
2013-05-12 11:52:00,46.0,46.0,-100.00,ENE,63,0.0,3.0,100,0.00,,,0.07,181.000000,,2013-05-12 19:52:00,
2013-05-12 12:11:00,48.0,43.0,-100.00,ESE,112,2.0,4.0,84,0.00,,,0.07,401.000000,,2013-05-12 20:11:00,
2013-05-12 12:21:00,48.0,43.0,-100.00,ESE,112,2.0,4.0,84,0.00,,,0.07,401.000000,,2013-05-12 20:21:00,
2013-05-12 12:32:00,48.0,43.0,-100.00,ESE,112,2.0,4.0,84,0.00,,,0.07,401.000000,,2013-05-12 20:32:00,
2013-05-12 12:41:00,48.0,43.0,-100.00,ESE,112,2.0,4.0,84,0.00,,,0.07,401.000000,,2013-05-12 20:41:00,
2013-05-12 12:51:00,48.0,43.0,-100.00,ESE,112,2.0,4.0,84,0.00,,,0.07,401.000000,,2013-05-12 20:51:00,
2013-05-12 13:11:00,51.0,43.0,-100.00,SE,127,4.0,7.0,73,0.00,,,0.07,601.000000,,2013-05-12 21:11:00,
2013-05-12 13:21:00,51.0,43.0,-100.00,SE,127,4.0,7.0,73,0.00,,,0.07,601.000000,,2013-05-12 21:21:00,
2013-05-12 13:33:00,51.0,43.0,-100.00,SE,127,4.0,7.0,73,0.00,,,0.07,601.000000,,2013-05-12 21:33:00,
2013-05-12 13:42:00,51.0,43.0,-100.00,SE,127,4.0,7.0,73,0.00,,,0.07,601.000000,,2013-05-12 21:42:00,
2013-05-12 13:52:00,51.0,43.0,-100.00,SE,127,4.0,7.0,73,0.00,,,0.07,601.000000,,2013-05-12 21:52:00,
2013-05-12 14:23:00,52.0,44.0,-100.00,SE,128,5.0,7.0,73,0.00,,,0.07,585.000000,,2013-05-12 22:23:00,
2013-05-12 14:32:00,52.0,44.0,-100.00,SE,128,5.0,7.0,73,0.00,,,0.07,585.000000,,2013-05-12 22:32:00,
2013-05-12 14:42:00,52.0,44.0,-100.00,SE,128,5.0,7.0,73,0.00,,,0.07,585.000000,,2013-05-12 22:42:00,
2013-05-12 14:52:00,52.0,44.0,-100.00,SE,128,5.0,7.0,73,0.00,,,0.07,585.000000,,2013-05-12 22:52:00,
2013-05-12 15:12:00,51.0,42.0,-100.00,SSE,165,5.0,9.0,71,0.00,,,0.07,473.000000,,2013-05-12 23:12:00,
2013-05-12 15:22:00,51.0,42.0,-100.00,SSE,165,5.0,9.0,71,0.00,,,0.07,473.000000,,2013-05-12 23:22:00,
2013-05-12 15:32:00,51.0,42.0,-100.00,SSE,165,5.0,9.0,71,0.00,,,0.07,473.000000,,2013-05-12 23:32:00,
2013-05-12 15:42:00,51.0,42.0,-100.00,SSE,165,5.0,9.0,71,0.00,,,0.07,473.000000,,2013-05-12 23:42:00,
2013-05-12 15:51:00,51.0,42.0,-100.00,SSE,165,5.0,9.0,71,0.00,,,0.07,473.000000,,2013-05-12 23:51:00,
2013-05-12 16:21:00,50.0,41.0,-100.00,SSE,160,5.0,8.0,71,0.00,,,0.07,326.000000,,2013-05-13 00:21:00,
2013-05-12 16:32:00,50.0,41.0,-100.00,SSE,160,5.0,8.0,71,0.00,,,0.07,326.000000,,2013-05-13 00:32:00,
2013-05-12 16:41:00,50.0,41.0,-100.00,SSE,160,5.0,8.0,71,0.00,,,0.07,326.000000,,2013-05-13 00:41:00,
2013-05-12 16:51:00,50.0,41.0,-100.00,SSE,160,5.0,8.0,71,0.00,,,0.07,326.000000,,2013-05-13 00:51:00,
2013-05-12 17:11:00,49.0,41.0,-100.00,SSE,162,2.0,7.0,75,0.00,,,0.07,167.000000,,2013-05-13 01:11:00,
2013-05-12 17:22:00,49.0,41.0,-100.00,SSE,162,2.0,7.0,75,0.00,,,0.07,167.000000,,2013-05-13 01:22:00,
2013-05-12 17:31:00,49.0,41.0,-100.00,SSE,162,2.0,7.0,75,0.00,,,0.07,167.000000,,2013-05-13 01:31:00,
2013-05-12 17:41:00,49.0,41.0,-100.00,SSE,162,2.0,7.0,75,0.00,,,0.07,167.000000,,2013-05-13 01:41:00,
2013-05-12 17:52:00,49.0,41.0,-100.00,SSE,162,2.0,7.0,75,0.00,,,0.07,167.000000,,2013-05-13 01:52:00,
2013-05-12 18:11:00,48.0,41.0,-100.00,South,176,3.0,5.0,77,0.00,,,0.07,144.000000,,2013-05-13 02:11:00,
2013-05-12 18:21:00,48.0,41.0,-100.00,South,176,3.0,5.0,77,0.00,,,0.07,144.000000,,2013-05-13 02:21:00,
2013-05-12 18:31:00,48.0,41.0,-100.00,South,176,3.0,5.0,77,0.00,,,0.07,144.000000,,2013-05-13 02:31:00,
2013-05-12 18:41:00,48.0,41.0,-100.00,South,176,3.0,5.0,77,0.00,,,0.07,144.000000,,2013-05-13 02:41:00,
2013-05-12 18:51:00,48.0,41.0,-100.00,South,176,3.0,5.0,77,0.00,,,0.07,144.000000,,2013-05-13 02:51:00,
2013-05-12 19:11:00,47.0,40.0,-100.00,SSE,168,3.0,6.0,77,0.00,,,0.06,94.000000,,2013-05-13 03:11:00,
2013-05-12 19:21:00,47.0,40.0,-100.00,SSE,168,3.0,6.0,77,0.00,,,0.06,94.000000,,2013-05-13 03:21:00,
2013-05-12 19:32:00,47.0,40.0,-100.00,SSE,168,3.0,6.0,77,0.00,,,0.06,94.000000,,2013-05-13 03:32:00,
2013-05-12 19:42:00,47.0,40.0,-100.00,SSE,168,3.0,6.0,77,0.00,,,0.06,94.000000,,2013-05-13 03:42:00,
2013-05-12 19:52:00,47.0,40.0,-100.00,SSE,168,3.0,6.0,77,0.00,,,0.06,94.000000,,2013-05-13 03:52:00,
2013-05-12 20:12:00,45.0,37.0,-100.00,SSE,161,0.0,4.0,73,0.00,,,0.05,64.000000,,2013-05-13 04:12:00,
2013-05-12 20:23:00,45.0,37.0,-100.00,SSE,161,0.0,4.0,73,0.00,,,0.05,64.000000,,2013-05-13 04:23:00,
2013-05-12 20:32:00,45.0,37.0,-100.00,SSE,161,0.0,4.0,73,0.00,,,0.05,64.000000,,2013-05-13 04:32:00,
2013-05-12 20:41:00,45.0,37.0,-100.00,SSE,161,0.0,4.0,73,0.00,,,0.05,64.000000,,2013-05-13 04:41:00,
2013-05-12 20:52:00,45.0,37.0,-100.00,SSE,161,0.0,4.0,73,0.00,,,0.05,64.000000,,2013-05-13 04:52:00,
2013-05-12 21:11:00,43.0,37.0,-100.00,SE,129,0.0,2.0,80,0.00,,,0.03,72.000000,,2013-05-13 05:11:00,
2013-05-12 21:21:00,43.0,37.0,-100.00,SE,129,0.0,2.0,80,0.00,,,0.03,72.000000,,2013-05-13 05:21:00,
2013-05-12 21:32:00,43.0,37.0,-100.00,SE,129,0.0,2.0,80,0.00,,,0.03,72.000000,,2013-05-13 05:32:00,
2013-05-12 21:42:00,43.0,37.0,-100.00,SE,129,0.0,2.0,80,0.00,,,0.03,72.000000,,2013-05-13 05:42:00,
2013-05-12 21:51:00,43.0,37.0,-100.00,SE,129,0.0,2.0,80,0.00,,,0.03,72.000000,,2013-05-13 05:51:00,
2013-05-12 22:21:00,41.0,41.0,-100.00,South,174,0.0,1.0,99,0.00,,,0.01,14.000000,,2013-05-13 06:21:00,
2013-05-12 22:31:00,41.0,41.0,-100.00,South,174,0.0,1.0,99,0.00,,,0.01,14.000000,,2013-05-13 06:31:00,
2013-05-12 22:42:00,41.0,41.0,-100.00,South,174,0.0,1.0,99,0.00,,,0.01,14.000000,,2013-05-13 06:42:00,
2013-05-12 22:52:00,41.0,41.0,-100.00,South,174,0.0,1.0,99,0.00,,,0.01,14.000000,,2013-05-13 06:52:00,
2013-05-12 23:11:00,40.0,40.0,-100.00,SSW,207,0.0,0.0,100,0.02,,,0.03,2.000000,,2013-05-13 07:11:00,
2013-05-12 23:22:00,40.0,40.0,-100.00,SSW,207,0.0,0.0,100,0.02,,,0.03,2.000000,,2013-05-13 07:22:00,
2013-05-12 23:31:00,40.0,40.0,-100.00,SSW,207,0.0,0.0,100,0.02,,,0.03,2.000000,,2013-05-13 07:31:00,
2013-05-12 23:41:00,40.0,40.0,-100.00,SSW,207,0.0,0.0,100,0.02,,,0.03,2.000000,,2013-05-13 07:41:00,
2013-05-12 23:51:00,40.0,40.0,-100.00,SSW,207,0.0,0.0,100,0.02,,,0.03,2.000000,,2013-05-13 07:51:00,